Location: Unspecified
(0.0000°N, 0.0000°E)
Time: 04:10:43
(UTC+00:00)

RS-6 - Pass Details

Date: 29 September 2022
Orbit: 1636 x 1664 km, 83.0° (Epoch: 27 November)

Event Time Altitude Azimuth Distance (km) Brightness Sun altitude
Rises 03:55:43 0° 169° (S) 4,899 ? -28.7°
Reaches altitude 10° 03:58:55 10° 163° (SSE) 3,906 ? -27.9°
Maximum altitude 04:07:54 47° 92° (E) 2,091 ? -25.6°
Drops below altitude 10° 04:16:46 10° 22° (NNE) 3,875 ? -23.4°
Sets 04:19:53 0° 17° (NNE) 4,857 ? -22.6°
